KDEN

Denver International Airport

Airport
ICAO code
KDEN
IATA Code
DEN
Summary
ICAO Region
NAM
ICAO Territory
Location

Denver, Colorado,

Serving
Denver
Elevation
5431 ft
Coordinates
39° 51' 34" N , 104° 40' 19" W
KCC
Airport RE
Hot and High Operations
Metar
Observation
KDEN 282316Z 08011KT M1/4SM R35L/1200V1400FT FZFG VV002 M07/M08 A2986 RMK AO2 TWR VIS 1/4 I1002 T10671078
Station
Denver, Denver International Airport
Date/Time
2023-01-28 23:16:00
Wind direction
80°
Wind speed
11 kts
Lowest cloud amount
n/a
Temperature
-6.7°C
Dew point
-7.8°C
Humidity
91%
Weather condition
freezing fog

Description

International airport serving the City of Denver.

Climatology

Cold Semi-arid climate (Köppen climate classification BSk). - Hot, sometimes extremely hot summers and cold, sometimes very cold winters. Some snowfall during the winter. Areas featuring cold semi-arid climates are sometimes subject to major temperature swings during a 24 hour period.

SKYbrary Partners:

Safety knowledge contributed by: